1496854800.91,26506,19.25,73904.0,2.33,-0.85,-0.89,0,*74
1496854802.09,26507,19.25,73904.0,2.35,-0.69,-0.69,0,*7F
1496854803.27,26508,19.25,73904.0,2.35,-0.69,-0.69,0,*70
1496854804.45,26509,19.25,73904.0,2.35,-0.77,-0.69,0,*7E
1496854805.63,26510,19.25,73906.3,2.35,-0.65,-0.57,0,*78
1496854806.84,26511,19.25,73904.0,2.33,-0.69,-0.69,0,*7E
1496854808.05,26512,19.25,73904.3,2.33,-0.69,-0.69,0,*7D
1496854809.25,26513,19.25,73904.0,2.33,-0.69,-0.61,0,*74
1496854810.45,26514,19.25,73906.8,2.33,-0.69,-0.61,0,*73
1496854811.66,26515,19.25,73904.8,2.33,-0.61,-0.57,0,*7F
1496854812.86,26516,19.25,73904.5,2.33,-0.69,-0.69,0,*79
1496854814.07,26517,19.25,73904.0,2.33,-0.69,-0.69,0,*78
1496854815.27,26518,19.25,73904.3,2.29,-0.61,-0.57,0,*79
1496854816.47,26519,19.25,73904.3,2.29,-0.57,-0.57,0,*7D
1496854817.64,26520,19.25,73908.0,2.27,-0.61,-0.61,0,*79
1496854818.83,26521,19.25,73904.0,2.27,-0.77,-0.77,0,*78
1496854820.01,26522,19.25,73904.3,2.27,-0.65,-0.65,0,*7B
1496854821.19,26523,19.25,73904.5,2.27,-0.61,-0.49,0,*70
1496854822.38,26524,19.25,73908.3,2.27,-0.41,-0.49,0,*75
1496854823.59,26525,19.25,73900.3,2.25,-0.37,-0.29,0,*71
1496854824.77,26526,19.25,73906.3,2.27,-0.37,-0.29,0,*70
1496854825.95,26527,19.25,73906.3,2.27,-0.41,-0.29,0,*70
1496854827.13,26528,19.25,73906.3,2.27,-0.41,-0.29,0,*7F
1496854828.32,26529,19.25,73904.0,2.27,-0.41,-0.37,0,*71
1496854829.51,26530,19.25,73902.5,2.27,-0.49,-0.41,0,*70
1496854830.71,26531,19.25,73904.3,2.29,-0.49,-0.45,0,*7B
1496854831.91,26532,19.25,73902.5,2.29,-0.49,-0.45,0,*78
1496854833.1,26533,19.25,73904.5,2.27,-0.49,-0.41,0,*73
1496854834.29,26534,19.25,73904.0,2.27,-0.37,-0.37,0,*7C
1496854835.49,26535,19.25,73904.5,2.27,-0.37,-0.27,0,*7C
1496854836.68,26536,19.25,73904.8,2.27,-0.41,-0.37,0,*7F
1496854837.86,26537,19.19,73900.5,2.27,-0.29,-0.29,0,*7F
1496854839.09,26538,19.25,73906.0,2.29,-0.27,-0.15,0,*7F
1496854840.28,26539,19.25,73904.5,2.27,-0.37,-0.37,0,*71
1496854841.51,26540,19.25,73906.3,2.27,-0.23,-0.27,0,*7B
1496854842.69,26541,19.19,73902.0,2.27,-0.37,-0.29,0,*71
1496854843.87,26542,19.25,73904.0,2.23,-0.45,-0.53,0,*7E
1496854845.06,26543,19.25,73902.5,2.27,-0.41,-0.49,0,*74
1496854846.25,26544,19.25,73906.3,2.27,-0.41,-0.41,0,*7B
1496854847.43,26545,19.25,73900.8,2.27,-0.61,-0.53,0,*7B
1496854848.64,26546,19.25,73904.3,2.25,-0.53,-0.41,0,*78
1496854849.85,26547,19.25,73902.8,2.25,-0.29,-0.29,0,*7A
1496854851.08,26548,19.25,73904.8,2.25,-0.27,-0.37,0,*74
1496854852.3,26549,19.19,73900.0,2.25,-0.41,-0.41,0,*74
1496854853.53,26550,19.25,73904.3,2.25,-0.29,-0.27,0,*72
1496854854.74,26551,19.25,73904.8,2.25,-0.19,-0.19,0,*7D
1496854855.95,26552,19.25,73904.0,2.25,-0.15,-0.15,0,*7E
1496854857.16,26553,19.19,73900.5,2.25,-0.19,-0.15,0,*73
1496854858.37,26554,19.25,73906.5,2.25,-0.19,-0.07,0,*47
1496854859.54,26555,19.19,73900.5,2.23,-0.29,-0.29,0,*7F
1496854860.73,26556,19.25,73906.0,2.27,-0.41,-0.37,0,*79
1496854861.92,26557,19.25,73904.5,2.27,-0.53,-0.53,0,*79
1496854863.09,26558,19.25,73906.3,2.23,-0.61,-0.53,0,*73
1496854864.27,26559,19.25,73904.0,2.23,-0.65,-0.65,0,*73
1496854865.44,26560,19.25,73904.5,2.23,-0.61,-0.53,0,*78
1496854866.63,26561,19.25,73902.8,2.23,-0.53,-0.41,0,*7B
1496854867.81,26562,19.25,73904.5,2.23,-0.57,-0.53,0,*7F
1496854868.99,26563,19.25,73906.3,2.23,-0.61,-0.49,0,*70
1496854870.17,26564,19.25,73906.3,2.23,-0.45,-0.45,0,*7D
1496854871.34,26565,19.25,73906.0,2.23,-0.33,-0.29,0,*77
1496854872.52,26566,19.25,73904.5,2.23,-0.41,-0.33,0,*7A
1496854873.71,26567,19.25,73904.0,2.23,-0.57,-0.45,0,*7D
1496854874.88,26568,19.25,73906.5,2.23,-0.65,-0.65,0,*71
1496854876.06,26569,19.25,73904.8,2.23,-0.57,-0.65,0,*71
1496854877.24,26570,19.25,73902.8,2.23,-0.45,-0.45,0,*78
1496854878.45,26571,19.25,73902.8,2.21,-0.33,-0.33,0,*7B
1496854879.68,26572,19.25,73904.0,2.21,-0.29,-0.23,0,*72
1496854880.89,26573,19.25,73902.3,2.21,-0.19,-0.19,0,*79
1496854882.12,26574,19.25,73904.5,2.19,-0.23,-0.23,0,*75
1496854883.34,26575,19.25,73902.0,2.21,-0.19,-0.11,0,*77
1496854884.55,26576,19.25,73902.5,2.21,-0.11,-0.19,0,*74
1496854885.79,26577,19.19,73902.5,2.21,-0.23,-0.19,0,*74
1496854887.0,26578,19.25,73902.3,2.21,-0.19,-0.19,0,*72
1496854888.22,26579,19.25,73900.3,2.21,-0.11,-0.11,0,*73
1496854889.43,26580,19.25,73906.3,2.21,-0.11,-0.07,0,*42
1496854890.63,26581,19.25,73900.0,2.21,-0.07,-0.07,0,*74
1496854891.81,26582,19.19,73900.5,2.19,-0.11,-0.07,0,*4B
1496854893.02,26583,19.25,73900.8,2.21,-0.11,-0.19,0,*7E
1496854894.23,26584,19.25,73904.0,2.21,-0.19,-0.29,0,*72
1496854895.45,26585,19.25,73904.3,2.21,-0.19,-0.19,0,*70
1496854896.68,26586,19.25,73906.5,2.21,-0.23,-0.29,0,*79
1496854897.93,26587,19.25,73900.8,2.21,-0.23,-0.23,0,*72
1496854899.15,26588,19.25,73900.5,2.21,-0.11,-0.11,0,*7D
1496854900.37,26589,19.25,73902.5,2.21,-0.11,-0.19,0,*74
1496854901.55,26590,19.25,73904.8,2.19,-0.15,-0.15,0,*7F
1496854902.76,26591,19.25,73902.8,2.21,-0.07,-0.11,0,*42
1496854903.96,26592,19.25,73904.8,2.21,-0.03,-0.03,0,*76
1496854905.13,26593,19.25,73904.0,2.19,-0.07,-0.07,0,*7C
1496854906.31,26594,19.25,73904.0,2.23,-0.03,-0.03,0,*72
1496854907.48,26595,19.25,73900.8,2.23,-0.03,-0.07,0,*77
1496854908.68,26596,19.25,73904.3,2.25,-0.03,-0.07,0,*72
1496854909.86,26597,19.25,73904.8,2.23,-0.07,-0.11,0,*46
1496854911.04,26598,19.25,73904.8,2.23,-0.07,-0.11,0,*49
1496854912.24,26599,19.19,73900.5,2.21,-0.03,-0.03,0,*7D
1496854913.44,26600,19.25,73900.3,2.21,0.05,-0.03,0,*55
1496854914.64,26601,19.25,73904.3,2.21,-0.07,-0.07,0,*7F
1496854915.85,26602,19.25,73900.0,2.21,-0.07,-0.11,0,*4B
1496854917.08,26603,19.25,73902.8,2.21,-0.19,-0.23,0,*74
1496854918.32,26604,19.25,73904.0,2.21,-0.19,-0.23,0,*73
1496854919.52,26605,19.25,73904.5,2.21,-0.03,-0.07,0,*7F
1496854920.72,26606,19.19,73900.5,2.21,0.05,-0.03,0,*53
1496854921.91,26607,19.19,73902.3,2.21,0.05,-0.03,0,*52
1496854923.12,26608,19.25,73902.8,2.23,-0.11,-0.23,0,*75
1496854924.35,26609,19.25,73906.5,2.23,-0.23,-0.23,0,*75
1496854925.53,26610,19.25,73906.5,2.23,-0.03,-0.11,0,*4E
1496854926.7,26611,19.25,73904.5,2.23,-0.03,-0.07,0,*78
1496854927.87,26612,19.25,73904.5,2.23,-0.03,-0.03,0,*7F
1496854929.05,26613,19.25,73904.5,2.23,-0.03,-0.03,0,*7E
1496854930.24,26614,19.25,73904.0,2.21,0.09,-0.03,0,*5C
1496854931.45,26615,19.25,73902.3,2.21,-0.11,-0.07,0,*4D
1496854932.62,26616,19.25,73900.8,2.23,-0.03,-0.03,0,*7B
1496854933.8,26617,19.25,73902.0,2.23,-0.03,-0.03,0,*7A
1496854934.96,26618,19.25,73904.0,2.23,0.05,-0.03,0,*5E
1496854936.14,26619,19.25,73904.0,2.23,-0.03,-0.07,0,*70
1496854937.32,26620,19.19,73902.5,2.23,-0.19,-0.19,0,*7E
1496854938.51,26621,19.19,73900.5,2.23,-0.41,-0.53,0,*7C
1496854939.68,26622,19.25,73902.0,2.23,-0.33,-0.53,0,*7A
1496854940.86,26623,19.25,73904.0,2.23,-0.33,-0.45,0,*7C
1496854942.04,26624,19.25,73900.0,2.23,-0.45,-0.45,0,*7A
1496854943.22,26625,19.19,73900.5,2.23,-0.53,-0.53,0,*7B
1496854944.4,26626,19.25,73900.0,2.23,-0.41,-0.45,0,*7C
1496854945.61,26627,19.25,73900.0,2.21,-0.41,-0.45,0,*7F
1496854946.8,26628,19.25,73900.8,2.19,-0.45,-0.45,0,*7F
1496854948.01,26629,19.19,73900.5,2.21,-0.45,-0.33,0,*74
1496854949.22,26630,19.19,73898.5,2.21,-0.45,-0.45,0,*7D
1496854950.43,26631,19.25,73902.3,2.21,-0.45,-0.49,0,*70
1496854951.61,26632,19.25,73902.5,2.19,-0.49,-0.49,0,*74
1496854952.79,26633,19.25,73902.5,2.19,-0.69,-0.69,0,*75
1496854954.0,26634,19.25,73900.8,2.21,-0.57,-0.65,0,*78
1496854955.18,26635,19.25,73902.0,2.19,-0.49,-0.57,0,*7C
1496854956.38,26636,19.19,73902.5,2.21,-0.45,-0.53,0,*7C
1496854957.57,26637,19.25,73904.8,2.19,-0.45,-0.49,0,*7D
1496854958.75,26638,19.25,73902.3,2.19,-0.45,-0.49,0,*72
1496854959.93,26639,19.25,73902.0,2.19,-0.49,-0.49,0,*7F
1496854961.11,26640,19.25,73900.8,2.19,-0.49,-0.49,0,*71
1496854962.29,26641,19.25,73904.5,2.19,-0.49,-0.57,0,*7F
1496854963.5,26642,19.25,73902.0,2.17,-0.41,-0.53,0,*7E
1496854964.72,26643,19.25,73902.3,2.17,-0.41,-0.49,0,*74
1496854965.93,26644,19.25,73900.5,2.17,-0.37,-0.49,0,*72
1496854967.13,26645,19.25,73904.0,2.17,-0.49,-0.49,0,*7A
1496854968.35,26646,19.25,73904.0,2.17,-0.73,-0.73,0,*79
1496854969.53,26647,19.25,73902.3,2.15,-0.65,-0.65,0,*7A
1496854970.7,26648,19.25,73902.3,2.15,-0.65,-0.65,0,*75
1496854971.88,26649,19.25,73900.8,2.15,-0.65,-0.73,0,*73
1496854973.09,26650,19.25,73902.8,2.17,-0.61,-0.73,0,*7D
1496854974.27,26651,19.25,73900.8,2.15,-0.53,-0.65,0,*78
1496854975.45,26652,19.25,73900.5,2.15,-0.29,-0.37,0,*71
1496854976.65,26653,19.19,73900.8,2.17,-0.29,-0.29,0,*7D
1496854977.83,26654,19.25,73900.8,2.15,-0.41,-0.53,0,*7B
1496854979.03,26655,19.25,73902.8,2.17,-0.61,-0.61,0,*7B
1496854980.2,26656,19.19,73898.3,2.15,-0.53,-0.61,0,*7B
1496854981.38,26657,19.25,73902.5,2.15,-0.49,-0.49,0,*7B
1496854982.59,26658,19.25,73902.5,2.13,-0.45,-0.45,0,*72
1496854983.81,26659,19.25,73902.3,2.13,-0.41,-0.41,0,*73
1496854985.02,26660,19.25,73902.3,2.13,-0.45,-0.41,0,*7D
1496854986.23,26661,19.25,73902.3,2.13,-0.41,-0.45,0,*7C
1496854987.44,26662,19.19,73900.0,2.13,-0.45,-0.41,0,*7F
1496854988.65,26663,19.25,73902.3,2.13,-0.57,-0.65,0,*7B
1496854989.85,26664,19.25,73902.8,2.13,-0.53,-0.45,0,*7A
1496854991.06,26665,19.25,73902.0,2.13,-0.33,-0.45,0,*7D
1496854992.27,26666,19.19,73898.5,2.13,-0.41,-0.29,0,*71
1496854993.47,26667,19.25,73900.0,2.13,-0.45,-0.45,0,*7E
1496854994.67,26668,19.25,73900.3,2.13,-0.29,-0.29,0,*71
1496854995.87,26669,19.19,73900.0,2.13,-0.29,-0.29,0,*70
1496854997.08,26670,19.25,73902.8,2.13,-0.41,-0.29,0,*76
1496854998.28,26671,19.25,73900.5,2.13,-0.29,-0.29,0,*79
1496854999.51,26672,19.25,73904.8,2.13,-0.23,-0.29,0,*70
1496855000.71,26673,19.25,73900.8,2.11,-0.15,-0.23,0,*7C
1496855001.92,26674,19.25,73906.0,2.13,-0.15,-0.15,0,*7C
1496855003.13,26675,19.25,73904.0,2.13,-0.15,-0.15,0,*7D
1496855004.36,26676,19.19,73900.5,2.13,-0.23,-0.19,0,*77
1496855005.58,26677,19.25,73906.0,2.13,-0.41,-0.41,0,*7F
1496855006.77,26678,19.25,73902.8,2.11,-0.53,-0.53,0,*72
1496855007.97,26679,19.25,73900.0,2.13,-0.33,-0.29,0,*7A
1496855009.18,26680,19.25,73900.8,2.13,-0.15,-0.15,0,*77
1496855010.39,26681,19.25,73900.5,2.13,-0.15,-0.15,0,*76
1496855011.55,26682,19.19,73902.0,2.15,0.01,-0.03,0,*5C
1496855012.72,26683,19.25,73904.0,2.15,-0.03,-0.03,0,*72
1496855013.9,26684,19.25,73904.3,2.11,-0.07,-0.15,0,*42
1496855015.11,26685,19.19,73902.0,2.13,-0.07,-0.15,0,*41
1496855016.29,26686,19.25,73906.3,2.11,-0.07,-0.15,0,*40
1496855017.49,26687,19.25,73900.3,2.13,-0.03,-0.07,0,*74
1496855018.69,26688,19.19,73902.3,2.13,-0.07,-0.07,0,*7F
1496855019.89,26689,19.25,73902.3,2.13,-0.03,-0.07,0,*7A
1496855021.09,26690,19.25,73904.3,2.17,-0.03,-0.03,0,*72
1496855022.27,26691,19.25,73904.5,2.15,-0.19,-0.29,0,*72
1496855023.45,26692,19.19,73902.8,2.15,-0.19,-0.29,0,*71
1496855024.63,26693,19.25,73904.3,2.15,-0.11,-0.11,0,*73
1496855025.84,26694,19.25,73900.8,2.17,-0.15,-0.19,0,*7A
1496855027.03,26695,19.19,73902.5,2.15,-0.15,-0.15,0,*75
1496855028.25,26696,19.19,73902.5,2.15,-0.27,-0.27,0,*76
1496855029.44,26697,19.25,73902.5,2.15,-0.37,-0.37,0,*77
1496855030.61,26698,19.19,73900.3,2.15,-0.37,-0.29,0,*77
1496855031.8,26699,19.25,73902.8,2.15,-0.19,-0.19,0,*79
1496855032.98,26700,19.19,73898.8,2.15,-0.19,-0.19,0,*78
1496855034.19,26701,19.25,73904.0,2.13,-0.29,-0.33,0,*74
1496855035.39,26702,19.25,73904.0,2.13,-0.65,-0.65,0,*7C
1496855036.58,26703,19.25,73904.5,2.11,-0.65,-0.57,0,*7E
1496855037.77,26704,19.25,73902.8,2.15,-0.41,-0.41,0,*7C
1496855038.97,26705,19.25,73904.0,2.13,-0.33,-0.29,0,*70
1496855040.19,26706,19.25,73904.8,2.13,-0.41,-0.41,0,*78
1496855041.39,26707,19.25,73906.3,2.13,-0.45,-0.45,0,*79
1496855042.6,26708,19.25,73902.0,2.13,-0.65,-0.57,0,*77
1496855043.78,26709,19.25,73902.8,2.11,-0.45,-0.45,0,*75
1496855044.99,26710,19.19,73900.8,2.13,-0.33,-0.41,0,*7A
1496855046.17,26711,19.25,73902.3,2.11,-0.29,-0.29,0,*7C
1496855047.39,26712,19.25,73900.0,2.13,-0.29,-0.23,0,*77
1496855048.61,26713,19.25,73904.3,2.13,-0.19,-0.19,0,*7C
1496855049.82,26714,19.25,73902.8,2.13,-0.19,-0.15,0,*77
1496855051.0,26715,19.25,73904.0,2.11,-0.29,-0.29,0,*78
1496855052.18,26716,19.19,73902.5,2.11,-0.29,-0.33,0,*70
1496855053.37,26717,19.25,73906.0,2.11,-0.41,-0.33,0,*7F
1496855054.62,26718,19.25,73904.3,2.13,-0.23,-0.23,0,*77
1496855055.83,26719,19.25,73904.8,2.11,-0.15,-0.23,0,*71
1496855057.04,26720,19.25,73904.0,2.13,-0.19,-0.19,0,*7C
1496855058.23,26721,19.25,73902.3,2.11,-0.15,-0.19,0,*73
1496855059.44,26722,19.25,73904.8,2.11,-0.19,-0.23,0,*75
1496855060.62,26723,19.19,73902.3,2.11,-0.19,-0.29,0,*7E
1496855061.81,26724,19.25,73904.0,2.11,-0.19,-0.19,0,*7A
1496855062.99,26725,19.19,73900.5,2.11,-0.15,-0.19,0,*77
1496855064.18,26726,19.25,73906.3,2.11,-0.15,-0.19,0,*74
1496855065.36,26727,19.19,73900.8,2.11,-0.15,-0.15,0,*79
1496855066.57,26728,19.19,73902.0,2.13,-0.15,-0.19,0,*78
1496855067.78,26729,19.25,73902.0,2.11,-0.19,-0.23,0,*7E
1496855069.01,26730,19.25,73904.3,2.13,-0.19,-0.23,0,*74
1496855070.2,26731,19.25,73902.8,2.11,-0.15,-0.15,0,*7E
1496855071.41,26732,19.19,73902.8,2.11,-0.19,-0.23,0,*74
1496855072.61,26733,19.19,73900.5,2.11,-0.23,-0.29,0,*76
1496855073.84,26734,19.19,73902.5,2.13,-0.15,-0.23,0,*7C
1496855075.08,26735,19.25,73904.3,2.13,-0.23,-0.19,0,*71
1496855076.26,26736,19.25,73904.0,2.11,-0.19,-0.19,0,*79
1496855077.48,26737,19.19,73900.5,2.13,-0.15,-0.15,0,*7A
1496855078.66,26738,19.25,73904.3,2.11,-0.15,-0.15,0,*77
1496855079.85,26739,19.19,73900.5,2.11,-0.15,-0.15,0,*76
1496855081.06,26740,19.25,73906.3,2.13,-0.15,-0.19,0,*76
1496855082.27,26741,19.25,73906.5,2.13,-0.15,-0.15,0,*7B
1496855083.48,26742,19.19,73900.5,2.13,-0.19,-0.19,0,*78
1496855084.69,26743,19.25,73900.8,2.13,-0.29,-0.33,0,*72
1496855085.87,26744,19.19,73898.8,2.11,-0.29,-0.41,0,*72
1496855087.06,26745,19.25,73900.5,2.11,-0.33,-0.41,0,*78
1496855088.25,26746,19.25,73902.5,2.11,-0.33,-0.41,0,*7B
1496855089.46,26747,19.25,73902.3,2.13,-0.19,-0.33,0,*75
1496855090.69,26748,19.25,73900.3,2.13,-0.15,-0.23,0,*77
1496855091.89,26749,19.25,73904.0,2.13,-0.15,-0.29,0,*7C
1496855093.08,26750,19.19,73900.5,2.11,-0.19,-0.19,0,*79
1496855094.27,26751,19.25,73900.0,2.11,-0.29,-0.41,0,*76
1496855095.48,26752,19.25,73902.3,2.13,-0.41,-0.45,0,*7D
1496855096.66,26753,19.25,73906.0,2.11,-0.29,-0.41,0,*74
1496855097.85,26754,19.25,73902.3,2.11,-0.15,-0.15,0,*7D
1496855099.06,26755,19.25,73902.0,2.11,-0.15,-0.23,0,*79
1496855100.24,26756,19.19,73902.5,2.11,-0.53,-0.69,0,*76
1496855101.43,26757,19.19,73902.0,2.11,-0.77,-0.77,0,*7E
1496855102.61,26758,19.25,73904.5,2.11,-0.57,-0.65,0,*70
1496855103.81,26759,19.19,73902.8,2.05,-0.61,-0.69,0,*7D
1496855104.98,26760,19.25,73906.3,2.07,-0.57,-0.61,0,*78
1496855106.15,26761,19.25,73904.8,2.07,-0.49,-0.61,0,*76
1496855107.33,26762,19.19,73902.8,2.07,-0.37,-0.45,0,*7A
1496855108.54,26763,19.25,73902.8,2.11,-0.23,-0.29,0,*73
1496855109.72,26764,19.19,73902.5,2.11,-0.19,-0.19,0,*7E
1496855110.93,26765,19.25,73902.3,2.07,-0.23,-0.19,0,*71
1496855112.15,26766,19.25,73902.3,2.07,-0.23,-0.27,0,*7F
1496855113.36,26767,19.25,73902.3,2.07,-0.23,-0.33,0,*7B
1496855114.56,26768,19.19,73900.0,2.07,-0.27,-0.33,0,*70
1496855115.74,26769,19.19,73900.5,2.07,-0.33,-0.33,0,*74
1496855116.96,26770,19.25,73902.3,2.07,-0.27,-0.27,0,*7C
1496855118.19,26771,19.25,73900.3,2.05,-0.27,-0.29,0,*71
1496855119.37,26772,19.25,73902.3,2.07,-0.33,-0.33,0,*7E
1496855120.55,26773,19.19,73902.3,2.07,-0.33,-0.33,0,*7F
1496855121.72,26774,19.19,73896.5,2.07,-0.37,-0.45,0,*7D
1496855122.9,26775,19.25,73902.0,2.07,-0.33,-0.37,0,*7D
1496855124.11,26776,19.25,73900.3,2.07,-0.27,-0.37,0,*7B
1496855125.29,26777,19.19,73902.3,2.07,-0.33,-0.33,0,*7B
1496855126.46,26778,19.25,73902.5,2.07,-0.33,-0.33,0,*74
1496855127.65,26779,19.25,73900.5,2.07,-0.49,-0.41,0,*7D
1496855128.83,26780,19.25,73902.3,2.07,-0.37,-0.37,0,*73
1496855130.0,26781,19.25,73900.8,2.07,-0.33,-0.33,0,*72
1496855131.18,26782,19.19,73898.3,2.07,-0.33,-0.37,0,*75
1496855132.36,26783,19.25,73900.8,2.07,-0.37,-0.33,0,*74
1496855133.54,26784,19.25,73900.3,2.07,-0.37,-0.29,0,*78
1496855134.71,26785,19.19,73898.5,2.07,-0.49,-0.45,0,*7A
1496855135.92,26786,19.19,73898.3,2.05,-0.49,-0.41,0,*7F
1496855137.1,26787,19.19,73900.0,2.07,-0.37,-0.45,0,*71
1496855138.27,26788,19.25,73902.3,2.07,-0.61,-0.69,0,*73
1496855139.48,26789,19.25,73902.5,2.05,-0.77,-0.77,0,*78
1496855140.66,26790,19.25,73902.3,2.07,-0.45,-0.37,0,*77
1496855141.87,26791,19.25,73900.8,2.07,-0.23,-0.33,0,*72
1496855143.07,26792,19.25,73902.8,2.07,-0.19,-0.23,0,*79
1496855144.33,26793,19.19,73900.5,2.05,-0.23,-0.23,0,*73
1496855145.58,26794,19.25,73902.5,2.05,-0.23,-0.23,0,*74
1496855146.83,26795,19.19,73898.5,2.05,-0.23,-0.23,0,*75
1496855148.06,26796,19.19,73900.5,2.07,-0.23,-0.27,0,*70
1496855149.26,26797,19.25,73900.0,2.07,-0.27,-0.45,0,*71
1496855150.47,26798,19.19,73896.5,2.05,-0.29,-0.37,0,*77
1496855151.72,26799,19.19,73900.0,2.05,-0.27,-0.27,0,*79
1496855152.94,26800,19.19,73898.3,2.05,-0.41,-0.49,0,*7E
1496855154.15,26801,19.25,73900.3,2.05,-0.37,-0.41,0,*76
1496855155.39,26802,19.25,73902.0,2.05,-0.27,-0.37,0,*75
1496855156.62,26803,19.19,73902.3,2.05,-0.27,-0.37,0,*74
1496855157.85,26804,19.25,73902.8,2.07,-0.23,-0.27,0,*74
1496855159.05,26805,19.25,73900.5,2.07,-0.19,-0.27,0,*7C
1496855160.25,26806,19.19,73900.0,2.07,-0.19,-0.23,0,*7B
1496855161.51,26807,19.25,73900.5,2.05,-0.27,-0.23,0,*75
1496855162.71,26808,19.19,73896.5,2.07,-0.19,-0.23,0,*75
1496855163.96,26809,19.19,73898.5,2.05,-0.23,-0.27,0,*7B
1496855165.2,26810,19.19,73898.0,2.05,-0.27,-0.37,0,*76
1496855166.43,26811,19.19,73898.5,2.05,-0.27,-0.37,0,*77
1496855167.66,26812,19.19,73898.5,2.05,-0.27,-0.29,0,*7B
1496855168.87,26813,19.19,73896.8,2.07,-0.19,-0.23,0,*7F
1496855170.12,26814,19.19,73902.5,2.05,-0.23,-0.23,0,*73
1496855171.37,26815,19.19,73900.0,2.05,-0.23,-0.23,0,*72
1496855172.61,26816,19.19,73900.8,2.05,-0.11,-0.23,0,*70
1496855173.84,26817,19.19,73898.5,2.05,-0.27,-0.37,0,*71
1496855175.05,26818,19.19,73902.5,2.05,-0.37,-0.49,0,*76
1496855176.27,26819,19.19,73902.8,2.05,-0.37,-0.41,0,*7F
1496855177.48,26820,19.19,73900.3,2.05,-0.37,-0.49,0,*7D
1496855178.73,26821,19.25,73900.8,2.05,-0.85,-0.89,0,*79
1496855179.94,26822,19.19,73898.8,2.05,-0.73,-0.77,0,*72
1496855181.15,26823,19.19,73902.5,2.05,-0.53,-0.53,0,*77
1496855182.35,26824,19.19,73902.5,2.05,-0.29,-0.29,0,*70
1496855183.55,26825,19.25,73900.8,2.03,-0.27,-0.29,0,*79
1496855184.76,26826,19.19,73900.3,2.03,-0.23,-0.37,0,*71
1496855185.99,26827,19.19,73902.3,2.03,-0.23,-0.23,0,*75
1496855187.2,26828,19.25,73904.3,2.03,-0.23,-0.37,0,*7F
1496855188.43,26829,19.19,73902.5,2.03,-0.23,-0.27,0,*7F
1496855189.66,26830,19.19,73902.0,2.03,-0.23,-0.23,0,*73
1496855190.89,26831,19.19,73900.5,2.01,-0.27,-0.29,0,*7E
1496855192.08,26832,19.19,73902.8,2.03,-0.37,-0.49,0,*78
1496855193.25,26833,19.25,73900.5,2.03,-0.29,-0.29,0,*70
1496855194.46,26834,19.19,73900.3,2.03,-0.23,-0.29,0,*7D
1496855195.64,26835,19.19,73902.3,2.03,-0.29,-0.37,0,*79
1496855196.83,26836,19.25,73902.3,2.03,-0.41,-0.53,0,*76
1496855198.03,26837,19.19,73902.5,2.01,-0.45,-0.45,0,*76
1496855199.24,26838,19.25,73900.5,2.01,-0.29,-0.41,0,*77
1496855200.45,26839,19.19,73898.0,2.03,-0.23,-0.37,0,*7F
1496855201.66,26840,19.19,73902.5,2.01,-0.33,-0.41,0,*73
1496855202.9,26841,19.19,73902.3,2.01,-0.27,-0.41,0,*77
1496855204.1,26842,19.19,73900.3,2.01,-0.19,-0.29,0,*77
1496855205.31,26843,19.25,73904.0,2.01,-0.19,-0.33,0,*7D
1496855206.55,26844,19.19,73902.0,2.01,-0.19,-0.27,0,*7F
1496855207.75,26845,19.25,73900.8,2.01,-0.19,-0.29,0,*70
1496855208.96,26846,19.19,73898.3,2.01,-0.19,-0.29,0,*73
1496855210.16,26847,19.25,73900.5,2.03,-0.23,-0.29,0,*79
1496855211.37,26848,19.19,73902.3,2.01,-0.29,-0.41,0,*70
1496855212.57,26849,19.19,73902.3,2.03,-0.27,-0.29,0,*73
1496855213.8,26850,19.19,73900.5,2.03,-0.23,-0.27,0,*71
1496855215.03,26851,19.19,73898.8,2.01,-0.27,-0.29,0,*78
1496855216.26,26852,19.19,73902.0,2.03,-0.23,-0.23,0,*77
1496855217.49,26853,19.19,73900.5,2.03,-0.23,-0.23,0,*76
1496855218.72,26854,19.19,73898.5,2.03,-0.23,-0.23,0,*71
1496855219.95,26855,19.19,73902.0,2.03,-0.23,-0.27,0,*74
1496855221.15,26856,19.25,73904.0,2.01,-0.19,-0.29,0,*72
1496855222.38,26857,19.19,73900.0,2.01,-0.27,-0.29,0,*7E
1496855223.58,26858,19.19,73900.0,2.03,-0.23,-0.29,0,*77
1496855224.82,26859,19.25,73900.8,2.01,-0.27,-0.41,0,*7E
1496855226.05,26860,19.19,73900.0,2.01,-0.27,-0.29,0,*7A
1496855227.28,26861,19.19,73902.8,2.03,-0.23,-0.27,0,*73
1496855228.48,26862,19.19,73896.8,2.03,-0.27,-0.29,0,*7A
1496855229.69,26863,19.19,73898.0,2.01,-0.29,-0.41,0,*79
1496855230.9,26864,19.19,73900.3,2.01,-0.29,-0.41,0,*7E
1496855232.11,26865,19.19,73900.5,2.01,-0.29,-0.33,0,*7A
1496855233.31,26866,19.19,73902.0,2.01,-0.29,-0.41,0,*7C
1496855234.54,26867,19.19,73898.8,2.01,-0.27,-0.29,0,*7D
1496855235.75,26868,19.19,73898.8,2.01,-0.29,-0.33,0,*77
1496855236.95,26869,19.19,73900.3,2.01,-0.19,-0.29,0,*7E
1496855238.18,26870,19.25,73902.8,2.01,-0.19,-0.27,0,*78
1496855239.41,26871,19.25,73902.0,2.01,-0.27,-0.29,0,*7A
1496855240.66,26872,19.19,73898.0,2.01,-0.27,-0.27,0,*77
1496855241.87,26873,19.19,73900.5,2.01,-0.41,-0.53,0,*75
1496855243.08,26874,19.25,73900.0,2.01,-0.41,-0.45,0,*75
1496855244.29,26875,19.25,73900.5,2.01,-0.29,-0.41,0,*7E
1496855245.53,26876,19.19,73898.3,2.01,-0.27,-0.41,0,*73
1496855246.77,26877,19.25,73900.5,2.01,-0.27,-0.41,0,*72
1496855248.0,26878,19.19,73902.5,2.01,-0.27,-0.33,0,*78
1496855249.23,26879,19.19,73900.8,2.01,-0.27,-0.33,0,*79
1496855250.44,26880,19.19,73900.3,2.01,-0.19,-0.29,0,*79
1496855251.64,26881,19.19,73900.0,2.03,-0.27,-0.29,0,*77
1496855252.84,26882,19.19,73900.0,2.01,-0.19,-0.29,0,*7B
1496855254.06,26883,19.19,73900.0,2.01,-0.19,-0.33,0,*71
1496855255.27,26884,19.19,73900.3,2.01,-0.19,-0.33,0,*76
1496855256.47,26885,19.25,73900.5,2.01,-0.19,-0.29,0,*7C
1496855257.68,26886,19.19,73900.0,2.01,-0.45,-0.69,0,*72
1496855258.88,26887,19.19,73902.3,1.99,-0.65,-0.89,0,*7D
1496855260.06,26888,19.19,73900.8,1.99,-0.57,-0.77,0,*72
1496855261.26,26889,19.19,73900.3,1.97,-0.29,-0.45,0,*75
1496855262.44,26890,19.19,73900.5,1.99,-0.19,-0.29,0,*7A
1496855263.61,26891,19.19,73896.5,1.99,-0.15,-0.29,0,*77
1496855264.79,26892,19.19,73900.5,1.99,-0.19,-0.29,0,*78
1496855265.99,26893,19.19,73902.0,1.99,-0.27,-0.29,0,*74
1496855267.2,26894,19.19,73900.8,1.99,-0.27,-0.41,0,*7D
1496855268.39,26895,19.19,73898.8,1.99,-0.29,-0.41,0,*72
1496855269.59,26896,19.19,73900.0,1.97,-0.33,-0.45,0,*70
1496855270.76,26897,19.19,73902.3,1.99,-0.29,-0.45,0,*74
1496855271.94,26898,19.19,73900.3,1.99,-0.45,-0.61,0,*77
1496855273.12,26899,19.19,73898.5,1.99,-0.45,-0.57,0,*73
1496855274.32,26900,19.19,73902.5,1.97,-0.49,-0.69,0,*7D
1496855275.52,26901,19.19,73898.5,1.97,-0.37,-0.49,0,*77
1496855276.72,26902,19.25,73904.0,1.97,-0.33,-0.45,0,*7C
1496855277.92,26903,19.19,73902.0,1.97,-0.33,-0.45,0,*7D
1496855279.1,26904,19.19,73900.3,1.99,-0.29,-0.45,0,*7F
1496855280.3,26905,19.19,73902.3,1.97,-0.29,-0.45,0,*70
1496855281.5,26906,19.19,73900.5,1.97,-0.29,-0.37,0,*76
1496855282.7,26907,19.19,73900.8,1.97,-0.29,-0.45,0,*72
1496855283.9,26908,19.19,73900.0,1.97,-0.29,-0.37,0,*78
1496855285.09,26909,19.25,73906.0,1.99,-0.19,-0.33,0,*70
1496855286.32,26910,19.19,73900.3,1.97,-0.23,-0.37,0,*7B
1496855287.55,26911,19.19,73896.8,1.97,-0.23,-0.37,0,*7A
1496855288.77,26912,19.19,73902.3,1.97,-0.23,-0.29,0,*76
1496855289.99,26913,19.25,73902.5,1.97,-0.23,-0.29,0,*77
1496855291.2,26914,19.19,73900.8,1.97,-0.29,-0.37,0,*75
1496855292.4,26915,19.19,73902.8,1.97,-0.29,-0.37,0,*74
1496855293.6,26916,19.19,73902.3,1.97,-0.29,-0.33,0,*73
1496855294.81,26917,19.19,73902.3,1.97,-0.19,-0.33,0,*71
1496855296.03,26918,19.19,73900.8,1.97,-0.23,-0.29,0,*7C
1496855297.26,26919,19.19,73900.0,1.97,-0.23,-0.29,0,*7D
1496855298.46,26920,19.19,73900.5,1.97,-0.29,-0.33,0,*76
1496855299.66,26921,19.25,73902.5,1.97,-0.29,-0.37,0,*73
1496855300.86,26922,19.25,73902.3,1.97,-0.29,-0.37,0,*70
1496855302.07,26923,19.19,73902.3,1.97,-0.37,-0.57,0,*78
1496855303.26,26924,19.25,73904.8,1.97,-0.49,-0.61,0,*73
1496855304.44,26925,19.19,73900.0,1.99,-0.45,-0.57,0,*75
1496855305.62,26926,19.19,73900.3,1.99,-0.57,-0.69,0,*78